Simultaneous Nadir Overpasses (SNOs) Predictions

Prediction of SNOs between NOAA-15 and METOP-C Satellite Orbit:

Table of predicted SNOs for the next 14.0 days since TLE Epoch: 11/27/2021
Index Date (NOAA-15) Time (NOAA-15) Lat,Lon (NOAA-15) SZA (NOAA-15 ) Date (METOP-C) Time (METOP-C) Lat,Lon (METOP-C) SZA (METOP-C ) Distance(km) Time Diff (sec)
1 11/27/2021 03:53:44 81.03, 159.48 104.25 11/27/2021 03:54:00 81.04, 159.44 104.25 0.92 16
2 11/27/2021 04:44:11 -81.03, -33.17 75.75 11/27/2021 04:44:41 -81.03, -33.32 75.76 2.46 30
3 11/27/2021 05:34:46 81.03, 134.25 104.26 11/27/2021 05:35:21 81.04, 134.32 104.29 1.92 35
4 11/27/2021 06:25:13 -81.03, -58.40 75.74 11/27/2021 06:26:02 -81.04, -58.43 75.72 1.07 49
5 11/27/2021 07:15:49 81.05, 108.65 104.25 11/27/2021 07:16:43 81.04, 108.83 104.29 3.26 54
6 11/27/2021 08:06:16 -81.05, -84.00 75.75 11/27/2021 08:07:24 -81.03, -83.92 75.72 1.97 68



Historial Predications of SNOs between NOAA-15 and METOP-C
